Weather in Sedyu

Russia / Komi Republic     63°23′55″N   53°57′40″E
temp.,
°C
wind,
m/s
gust,
m/s
humid.,
%
clouds,
%
prec.,
mm/h
press.,
hPa
HPBL,
m
18 may, tue
tue1800:00+8n228832 0.0 101932
03:00+7n2384100 0.0 102166
06:00+10nne23592 0.0 1022323
09:00+15nne22381 0.0 1023906
12:00+18nne12305 0.0 10231162
15:00+20ene11305 0.0 10231373
18:00+18se1135100 0.0 1022234
21:00+14se225032 0.0 102329
19 may, wed
wed1900:00+11sse2660100 0.0 1023108
03:00+11sse276763 0.0 1023144
06:00+15s37535 0.0 1022336
09:00+21ssw474091 0.0 10201141
12:00+24sw573267 0.0 10191635
15:00+26sw573084 0.0 10181668
18:00+25sw483610 0.0 1016694
21:00+20sw412505 0.0 1017306
20 may, thu
thu2000:00+18wsw413520 0.0 1017342
03:00+16wsw31061100 0.0 1017217
06:00+20wsw3854100 0.0 1017320
09:00+24sw453861 0.0 1017869
12:00+27sw452844 0.0 10161719
15:00+28sw452357 0.0 10152036
18:00+26sw372869 0.0 1014571
21:00+20ssw25430 0.0 101570
21 may, fri
fri2100:00+17ssw38499 0.0 1014146
03:00+16ssw285761 0.0 1015154
06:00+20sw35483 0.0 1015298
09:00+25ssw46320 0.0 10131906
12:00+27ssw57230 0.0 10122353
15:00+28ssw57225 0.0 10102709
18:00+26ssw48308 0.0 10092027
21:00+21s311385 0.0 1009360
22 may, sat
sat2200:00+18s31148100 0.0 1009259
03:00+17sse285487 0.0 1008165
06:00+20sw31046100 0.0 1007619
09:00+20sw4749100 0.0 10071250
12:00+16sw4877100 0.4 1007662
15:00+14wnw51088100 3.1 1009818
18:00+15wnw376754 0.8 1011805
21:00+12wsw287768 1.1 1012143